When you browse on this site, cookies collect data to enhance your experience and personalize the content and advertising you see.
Visit our Privacy Policy to learn more. By continuing to use the site, you agree to this use of cookies and data.
EN

Hourly Weather Baguim do Monte

Today, 9 August, Sunday

Time Temperature Precipitation Wind Pressure Humidity
00:00 +19°C° 0 mm 1 mps 750 mmHg 85%
01:00 +19°C° 0 mm 1 mps 750 mmHg 86%
02:00 +19°C° 0 mm 1 mps 750 mmHg 87%
03:00 +19°C° 0 mm 1 mps 750 mmHg 87%
04:00 +19°C° 0 mm 1 mps 750 mmHg 87%
05:00 +18°C° 0 mm 1 mps 750 mmHg 88%
06:00 +21°C° 0 mm 1 mps 750 mmHg 78%
07:00 +23°C° 0 mm 1 mps 750 mmHg 69%
08:00 +25°C° 0 mm 2 mps 750 mmHg 60%
09:00 +26°C° 0 mm 2 mps 750 mmHg 56%
10:00 +27°C° 0 mm 3 mps 750 mmHg 52%
11:00 +29°C° 0 mm 3 mps 750 mmHg 49%
12:00 +29°C° 0 mm 3 mps 749 mmHg 49%
13:00 +29°C° 0 mm 3 mps 749 mmHg 49%
14:00 +29°C° 0 mm 3 mps 748 mmHg 50%
15:00 +27°C° 0 mm 3 mps 748 mmHg 55%
16:00 +26°C° 0 mm 3 mps 748 mmHg 59%
17:00 +25°C° 0 mm 3 mps 748 mmHg 64%
18:00 +23°C° 0 mm 2 mps 748 mmHg 73%
19:00 +20°C° 0 mm 2 mps 749 mmHg 82%
20:00 +19°C° 0 mm 2 mps 749 mmHg 91%
21:00 +18°C° 0 mm 2 mps 749 mmHg 91%
22:00 +19°C° 0 mm 1 mps 749 mmHg 91%
23:00 +19°C° 0 mm 1 mps 748 mmHg 92%

Tomorrow, 10 August, Monday

Time Temperature Precipitation Wind Pressure Humidity
00:00 +19°C° 0 mm 1 mps 748 mmHg 91%
01:00 +19°C° 0 mm 1 mps 748 mmHg 90%
02:00 +20°C° 0 mm 1 mps 748 mmHg 89%
03:00 +17°C° 0 mm 0 mps 747 mmHg 88%
04:00 +17°C° 0 mm 0 mps 747 mmHg 88%
05:00 +17°C° 0 mm 0 mps 747 mmHg 88%
06:00 +19°C° 0 mm 0 mps 747 mmHg 83%
07:00 +20°C° 0 mm 0 mps 747 mmHg 78%
08:00 +21°C° 0 mm 0 mps 748 mmHg 73%
09:00 +25°C° 0 mm 1 mps 747 mmHg 65%
10:00 +27°C° 0 mm 2 mps 747 mmHg 57%
11:00 +29°C° 0 mm 2 mps 747 mmHg 49%
12:00 +29°C° 0 mm 3 mps 747 mmHg 50%
13:00 +29°C° 0 mm 3 mps 746 mmHg 50%
14:00 +29°C° 0 mm 4 mps 746 mmHg 51%
15:00 +28°C° 0 mm 4 mps 746 mmHg 55%
16:00 +27°C° 0 mm 3 mps 745 mmHg 59%
17:00 +25°C° 0 mm 3 mps 745 mmHg 62%
18:00 +24°C° 0 mm 3 mps 745 mmHg 70%
19:00 +21°C° 0 mm 2 mps 746 mmHg 77%
20:00 +20°C° 0 mm 2 mps 746 mmHg 84%
21:00 +19°C° 0 mm 2 mps 746 mmHg 85%
22:00 +19°C° 0 mm 2 mps 746 mmHg 87%
23:00 +18°C° 0 mm 2 mps 746 mmHg 89%

Day after tomorrow, 11 August, Tuesday

Time Temperature Precipitation Wind Pressure Humidity
00:00 +18°C° 0 mm 2 mps 746 mmHg 89%
01:00 +18°C° 0 mm 2 mps 745 mmHg 90%
02:00 +18°C° 0 mm 2 mps 745 mmHg 91%
03:00 +18°C° 0 mm 2 mps 745 mmHg 90%
04:00 +17°C° 0 mm 2 mps 745 mmHg 90%
05:00 +17°C° 0 mm 2 mps 745 mmHg 90%
06:00 +19°C° 0 mm 2 mps 745 mmHg 82%
07:00 +21°C° 0 mm 2 mps 746 mmHg 74%
08:00 +24°C° 0 mm 2 mps 746 mmHg 65%
09:00 +26°C° 0 mm 2 mps 746 mmHg 60%
10:00 +27°C° 0 mm 2 mps 746 mmHg 54%
11:00 +29°C° 0 mm 3 mps 746 mmHg 48%
12:00 +29°C° 0 mm 3 mps 746 mmHg 50%
13:00 +28°C° 0 mm 4 mps 746 mmHg 51%
14:00 +28°C° 0 mm 4 mps 746 mmHg 53%
15:00 +27°C° 0 mm 4 mps 746 mmHg 57%
16:00 +26°C° 0 mm 4 mps 746 mmHg 62%
17:00 +25°C° 0 mm 5 mps 746 mmHg 66%
18:00 +22°C° 0 mm 4 mps 747 mmHg 74%
19:00 +20°C° 0 mm 4 mps 747 mmHg 83%
20:00 +19°C° 0 mm 4 mps 748 mmHg 91%
21:00 +19°C° 0 mm 4 mps 748 mmHg 91%
22:00 +19°C° 0 mm 3 mps 748 mmHg 91%
23:00 +19°C° 0 mm 3 mps 748 mmHg 90%

12 August, Wednesday

Time Temperature Precipitation Wind Pressure Humidity
00:00 +19°C° 0 mm 3 mps 748 mmHg 90%
01:00 +19°C° 0 mm 2 mps 748 mmHg 90%
02:00 +19°C° 0 mm 2 mps 748 mmHg 89%
03:00 +19°C° 0 mm 2 mps 748 mmHg 89%
04:00 +19°C° 0 mm 3 mps 748 mmHg 89%
05:00 +19°C° 0 mm 3 mps 748 mmHg 89%
06:00 +20°C° 0 mm 3 mps 749 mmHg 85%
07:00 +21°C° 0 mm 3 mps 749 mmHg 81%
08:00 +22°C° 0 mm 4 mps 749 mmHg 77%
09:00 +23°C° 0 mm 4 mps 749 mmHg 68%
10:00 +26°C° 0 mm 5 mps 750 mmHg 59%
11:00 +27°C° 0 mm 5 mps 750 mmHg 50%
12:00 +27°C° 0 mm 6 mps 750 mmHg 51%
13:00 +27°C° 0 mm 6 mps 749 mmHg 52%
14:00 +26°C° 0 mm 6 mps 749 mmHg 53%
15:00 +26°C° 0 mm 6 mps 749 mmHg 54%
16:00 +24°C° 0 mm 7 mps 749 mmHg 56%
17:00 +24°C° 0 mm 7 mps 750 mmHg 58%
18:00 +22°C° 0 mm 6 mps 750 mmHg 65%
19:00 +20°C° 0 mm 5 mps 750 mmHg 72%
20:00 +19°C° 0 mm 4 mps 751 mmHg 79%
21:00 +18°C° 0 mm 4 mps 751 mmHg 81%
22:00 +18°C° 0 mm 3 mps 751 mmHg 83%
23:00 +17°C° 0 mm 3 mps 751 mmHg 84%

13 August, Thursday

Time Temperature Precipitation Wind Pressure Humidity
00:00 +17°C° 0 mm 3 mps 751 mmHg 85%
01:00 +17°C° 0 mm 3 mps 750 mmHg 86%
02:00 +16°C° 0 mm 2 mps 750 mmHg 86%
03:00 +16°C° 0 mm 2 mps 750 mmHg 87%
04:00 +16°C° 0 mm 2 mps 751 mmHg 87%
05:00 +15°C° 0 mm 2 mps 751 mmHg 87%
06:00 +18°C° 0 mm 2 mps 751 mmHg 75%
07:00 +20°C° 0 mm 2 mps 751 mmHg 64%
08:00 +24°C° 0 mm 2 mps 751 mmHg 52%
09:00 +25°C° 0 mm 3 mps 751 mmHg 48%
10:00 +26°C° 0 mm 4 mps 751 mmHg 43%
11:00 +28°C° 0 mm 5 mps 751 mmHg 39%
12:00 +27°C° 0 mm 6 mps 750 mmHg 41%
13:00 +27°C° 0 mm 6 mps 750 mmHg 43%
14:00 +27°C° 0 mm 7 mps 750 mmHg 46%
15:00 +26°C° 0 mm 6 mps 750 mmHg 49%
16:00 +24°C° 0 mm 6 mps 749 mmHg 52%
17:00 +22°C° 0 mm 5 mps 749 mmHg 55%
18:00 +21°C° 0 mm 5 mps 750 mmHg 65%
19:00 +19°C° 0 mm 4 mps 750 mmHg 74%
20:00 +17°C° 0 mm 3 mps 750 mmHg 84%
21:00 +16°C° 0 mm 3 mps 750 mmHg 85%
22:00 +16°C° 0 mm 2 mps 750 mmHg 86%
23:00 +15°C° 0 mm 2 mps 750 mmHg 87%

14 August, Friday

Time Temperature Precipitation Wind Pressure Humidity
00:00 +15°C° 0 mm 2 mps 750 mmHg 87%
01:00 +15°C° 0 mm 2 mps 750 mmHg 87%
02:00 +14°C° 0 mm 2 mps 749 mmHg 88%
03:00 +14°C° 0 mm 2 mps 749 mmHg 88%
04:00 +14°C° 0 mm 2 mps 750 mmHg 88%
05:00 +14°C° 0 mm 1 mps 750 mmHg 88%
06:00 +16°C° 0 mm 2 mps 750 mmHg 79%
07:00 +19°C° 0 mm 2 mps 750 mmHg 69%
08:00 +21°C° 0 mm 2 mps 750 mmHg 60%
09:00 +22°C° 0 mm 3 mps 749 mmHg 54%
10:00 +25°C° 0 mm 4 mps 749 mmHg 47%
11:00 +26°C° 0 mm 5 mps 749 mmHg 41%
12:00 +26°C° 0 mm 5 mps 749 mmHg 43%
13:00 +26°C° 0 mm 5 mps 749 mmHg 45%
14:00 +26°C° 0 mm 6 mps 748 mmHg 47%
15:00 +24°C° 0 mm 6 mps 748 mmHg 51%
16:00 +23°C° 0 mm 5 mps 749 mmHg 55%
17:00 +22°C° 0 mm 5 mps 749 mmHg 59%
18:00 +20°C° 0 mm 5 mps 749 mmHg 67%
19:00 +18°C° 0 mm 4 mps 750 mmHg 75%
20:00 +17°C° 0 mm 4 mps 750 mmHg 83%
21:00 +15°C° 0 mm 4 mps 750 mmHg 85%
22:00 +16°C° 0 mm 3 mps 750 mmHg 86%
23:00 +14°C° 0 mm 3 mps 750 mmHg 87%
Show more